Weather History for KMEI - December, 2013

Change the Weather History Date:

Saturday, December 28, 2013

  Actual Average Record
Temperature  
Mean Temperature 44 °F 45 °F  
Max Temperature 46 °F 57 °F 76 °F (1946)
Min Temperature 42 °F 34 °F 10 °F (1925)
Degree Days  
Heating Degree Days 21 20  
Month to date heating degree days 481 498  
Since 1 July heating degree days 982 948  
Cooling Degree Days 0 0  
Month to date cooling degree days 25 0  
Year to date cooling degree days 2066 2029  
Moisture  
Dew Point 41 °F    
Average Humidity 79    
Maximum Humidity 100    
Minimum Humidity 58    
Precipitation  
Precipitation 1.14 in 0.14 in 4.37 in (1915)
Month to date precipitation 7.27 4.64  
Year to date precipitation 67.19 55.74  
Sea Level Pressure  
Sea Level Pressure 30.14 in    
Wind  
Wind Speed 5 mph (NNE)    
Max Wind Speed 13 mph    
Max Gust Speed 16 mph    
Visibility 7 miles    
Events Rain    
T = Trace of Precipitation, MM = Missing Value Source: NWS Daily Summary

Daily Weather History Graph

Daily Weather History Graph

Search for Another Location

Airport or City:

Trip Planner

Search our weather history database for the weather conditions in past years. The results will help you decide how hot, cold, wet, or windy it might be!

Date:

Astronomy

Dec. 28, 2013 Rise Set
Actual Time 6:55 AM CST 4:58 PM CST
Civil Twilight 6:28 AM CST 5:25 PM CST
Nautical Twilight 5:57 AM CST 5:55 PM CST
Astronomical Twilight 5:27 AM CST 6:25 PM CST
Moon 2:39 AM CST (12/28) 1:42 PM CST (12/28)
Length of Visible Light 10h 57m
Length of Day
10h 02m
Waning Crescent, 19% of the Moon is Illuminated
Dec 28
Waning Crescent
Jan 1
New
Jan 7
First Quarter
Jan 15
Full
Jan 23
Last Quarter

Hourly Weather History & Observations

Time (CST) Temp. Windchill Dew Point Humidity Pressure Visibility Wind Dir Wind Speed Gust Speed Precip Events Conditions
12:58 AM 43.0 °F 40.3 °F 36.0 °F 76% 30.34 in 10.0 mi North 4.6 mph - N/A   Clear
1:58 AM 43.0 °F 40.3 °F 35.1 °F 74% 30.30 in 10.0 mi NNW 4.6 mph - N/A   Partly Cloudy
2:58 AM 46.0 °F - 32.0 °F 58% 30.29 in 10.0 mi Calm Calm - N/A   Overcast
3:58 AM 44.1 °F 41.5 °F 35.1 °F 71% 30.27 in 10.0 mi NNW 4.6 mph - N/A   Overcast
4:58 AM 44.1 °F 41.5 °F 36.0 °F 73% 30.26 in 10.0 mi North 4.6 mph - 0.00 in Rain Light Rain
5:58 AM 42.1 °F - 39.0 °F 89% 30.27 in 10.0 mi Calm Calm - 0.02 in Rain Light Rain
6:58 AM 42.1 °F 37.1 °F 39.0 °F 89% 30.25 in 10.0 mi North 8.1 mph - 0.05 in Rain Light Rain
7:36 AM 42.8 °F 39.3 °F 39.2 °F 87% 30.25 in 10.0 mi NE 5.8 mph - 0.01 in Rain Light Rain
7:43 AM 42.8 °F 39.3 °F 39.2 °F 87% 30.25 in 10.0 mi NE 5.8 mph - 0.01 in Rain Light Rain
7:55 AM 42.8 °F 39.3 °F 39.2 °F 87% 30.26 in 10.0 mi ENE 5.8 mph - 0.02 in Rain Light Rain
7:58 AM 43.0 °F 39.5 °F 39.9 °F 89% 30.27 in 10.0 mi NE 5.8 mph - 0.02 in Rain Light Rain
8:58 AM 43.0 °F 40.3 °F 41.0 °F 93% 30.29 in 4.0 mi NE 4.6 mph - 0.09 in Rain Rain
9:31 AM 42.8 °F 38.6 °F 41.0 °F 93% 30.27 in 3.0 mi NNE 6.9 mph - 0.08 in Rain Rain
9:55 AM 42.8 °F 38.6 °F 41.0 °F 93% 30.27 in 4.0 mi NE 6.9 mph - 0.13 in Rain Rain
9:58 AM 43.0 °F 38.2 °F 41.0 °F 93% 30.27 in 4.0 mi NE 8.1 mph - 0.14 in Rain Rain
10:58 AM 43.0 °F 38.2 °F 42.1 °F 97% 30.24 in 4.0 mi NNE 8.1 mph - 0.12 in Rain Rain
11:58 AM 44.1 °F 38.6 °F 42.1 °F 93% 30.17 in 3.0 mi NNE 10.4 mph - 0.17 in Rain Heavy Rain
12:58 PM 44.1 °F 40.1 °F 43.0 °F 96% 30.13 in 2.5 mi NE 6.9 mph - 0.17 in Rain Heavy Rain
1:12 PM 44.6 °F 40.7 °F 42.8 °F 93% 30.11 in 4.0 mi NNE 6.9 mph - 0.05 in Rain Rain
1:58 PM 44.1 °F 38.6 °F 43.0 °F 96% 30.06 in 4.0 mi NNE 10.4 mph - 0.16 in Rain Heavy Rain
2:27 PM 44.6 °F 41.4 °F 42.8 °F 93% 30.07 in 2.0 mi NNE 5.8 mph - 0.09 in Rain Heavy Rain
2:42 PM 44.6 °F 40.7 °F 42.8 °F 93% 30.06 in 4.0 mi NE 6.9 mph - 0.15 in Rain Rain
2:58 PM 45.0 °F 41.2 °F 43.0 °F 93% 30.06 in 4.0 mi NE 6.9 mph - 0.18 in Rain Light Rain
3:06 PM 44.6 °F 40.7 °F 42.8 °F 93% 30.05 in 5.0 mi NE 6.9 mph - 0.01 in Rain Light Rain
3:58 PM 44.1 °F 40.1 °F 43.0 °F 96% 30.03 in 5.0 mi NE 6.9 mph - 0.02 in Rain Light Rain
4:58 PM 44.1 °F 40.8 °F 43.0 °F 96% 30.04 in 10.0 mi NNE 5.8 mph - 0.01 in   Overcast
5:58 PM 44.1 °F 39.5 °F 42.1 °F 93% 30.00 in 10.0 mi NE 8.1 mph - 0.03 in   Overcast
6:58 PM 44.1 °F 37.7 °F 42.1 °F 93% 29.97 in 10.0 mi NE 12.7 mph - 0.00 in Rain Light Rain
7:58 PM 44.1 °F 41.5 °F 43.0 °F 96% 30.03 in 10.0 mi NW 4.6 mph - 0.00 in Rain Light Rain
8:58 PM 44.1 °F 42.5 °F 43.0 °F 96% 29.99 in 10.0 mi NNE 3.5 mph - 0.00 in   Overcast
9:49 PM 44.6 °F - 42.8 °F 93% 29.98 in 10.0 mi Calm Calm - 0.00 in Rain Light Rain
9:58 PM 44.1 °F 42.5 °F 43.0 °F 96% 29.98 in 10.0 mi NW 3.5 mph - 0.00 in   Overcast
10:58 PM 44.1 °F 40.1 °F 43.0 °F 96% 30.01 in 6.0 mi WNW 6.9 mph - 0.00 in Rain Light Rain
11:58 PM 44.1 °F 40.8 °F 43.0 °F 96% 29.92 in 8.0 mi NE 5.8 mph - 0.02 in Rain Light Rain